Grosse Ile, MI

11:48 PM EST on November 19, 2017 (GMT -0500)
Grosse Ile Municipal

Weather History for KONZ - March, 2013

Change the Weather History Date:

Tuesday, March 26, 2013

  Actual Average (KDTW) Record (KDTW)
Temperature  
Mean Temperature 40 °F -  
Max Temperature 46 °F 46 °F 81 °F (2007)
Min Temperature 33 °F 28 °F 11 °F (2001)
Degree Days  
Heating Degree Days 26    
Moisture  
Dew Point 27 °F    
Average Humidity 65    
Maximum Humidity 81    
Minimum Humidity 46    
Precipitation  
Precipitation 0.00 in - - ()
Sea Level Pressure  
Sea Level Pressure 29.99 in    
Wind  
Wind Speed 9 mph (NW)    
Max Wind Speed 17 mph    
Max Gust Speed 23 mph    
Visibility 10 miles    
Events Rain    
Averages and records for this station are not official NWS values.
T = Trace of Precipitation, MM = Missing Value Source: NWS Daily Summary

Daily Weather History Graph

Daily Weather History Graph

Search for Another Location

Airport or City:

Trip Planner

Search our weather history database for the weather conditions in past years. The results will help you decide how hot, cold, wet, or windy it might be!

Date:

Astronomy

Mar. 26, 2013 Rise Set
Actual Time 7:25 AM EDT 7:51 PM EDT
Civil Twilight 6:57 AM EDT 8:19 PM EDT
Nautical Twilight 6:24 AM EDT 8:53 PM EDT
Astronomical Twilight 5:50 AM EDT 9:27 PM EDT
Moon 7:27 PM EDT (3/26) 6:41 AM EDT (3/26)
Length of Visible Light 13h 22m
Length of Day
12h 26m
Waxing Gibbous, 99% of the Moon is Illuminated
Mar 26
Waxing Gibbous
Mar 27
Full
Apr 3
Last Quarter
Apr 10
New
Apr 18
First Quarter

Hourly Weather History & Observations

Time (EDT) Temp. Windchill Dew Point Humidity Pressure Visibility Wind Dir Wind Speed Gust Speed Precip Events Conditions
12:14 AM 35.6 °F 29.9 °F 26.6 °F 70% 29.87 in 10.0 mi NNW 6.9 mph - N/A   Overcast
12:34 AM 35.6 °F 29.2 °F 26.6 °F 70% 29.88 in 10.0 mi NNW 8.1 mph - N/A   Overcast
12:54 AM 35.6 °F 29.9 °F 26.6 °F 70% 29.88 in 10.0 mi NNW 6.9 mph - N/A   Overcast
1:14 AM 35.6 °F 29.2 °F 26.6 °F 70% 29.88 in 10.0 mi NNW 8.1 mph - N/A   Overcast
1:34 AM 35.6 °F 28.6 °F 26.6 °F 70% 29.88 in 10.0 mi NNW 9.2 mph - N/A   Overcast
1:54 AM 35.6 °F 28.0 °F 26.6 °F 70% 29.89 in 10.0 mi NNW 10.4 mph - N/A   Overcast
2:14 AM 35.6 °F 28.6 °F 26.6 °F 70% 29.89 in 10.0 mi NNW 9.2 mph 16.1 mph N/A   Overcast
2:34 AM 35.6 °F 27.5 °F 26.6 °F 70% 29.89 in 10.0 mi NNW 11.5 mph 16.1 mph N/A   Overcast
2:54 AM 35.6 °F 29.2 °F 26.6 °F 70% 29.90 in 10.0 mi NNW 8.1 mph - N/A   Overcast
3:14 AM 35.6 °F 29.9 °F 26.6 °F 70% 29.90 in 10.0 mi NNW 6.9 mph - N/A   Overcast
3:34 AM 35.6 °F 28.6 °F 26.6 °F 70% 29.90 in 10.0 mi NNW 9.2 mph - N/A   Overcast
3:54 AM 35.6 °F 27.1 °F 26.6 °F 70% 29.90 in 10.0 mi NNW 12.7 mph - N/A   Overcast
4:14 AM 35.6 °F 26.6 °F 26.6 °F 70% 29.90 in 10.0 mi NW 13.8 mph 18.4 mph N/A   Overcast
4:34 AM 35.6 °F 28.0 °F 26.6 °F 70% 29.90 in 10.0 mi NW 10.4 mph - N/A   Overcast
4:54 AM 35.6 °F 27.5 °F 26.6 °F 70% 29.90 in 10.0 mi NW 11.5 mph - N/A   Overcast
5:15 AM 35.6 °F 28.0 °F 26.6 °F 70% 29.91 in 10.0 mi NNW 10.4 mph - N/A   Overcast
5:34 AM 35.6 °F 28.0 °F 26.6 °F 70% 29.91 in 10.0 mi NNW 10.4 mph - N/A   Overcast
5:54 AM 35.6 °F 27.1 °F 26.6 °F 70% 29.92 in 10.0 mi NNW 12.7 mph - N/A   Overcast
6:14 AM 35.6 °F 28.0 °F 26.6 °F 70% 29.92 in 10.0 mi NNW 10.4 mph 17.3 mph N/A   Overcast
6:34 AM 35.6 °F 27.5 °F 26.6 °F 70% 29.93 in 10.0 mi NNW 11.5 mph - N/A   Overcast
6:55 AM 35.6 °F 27.5 °F 26.6 °F 70% 29.94 in 10.0 mi NW 11.5 mph 17.3 mph N/A   Overcast
7:14 AM 35.6 °F 29.2 °F 26.6 °F 70% 29.95 in 10.0 mi NNW 8.1 mph - N/A   Overcast
7:34 AM 35.6 °F 27.5 °F 26.6 °F 70% 29.96 in 10.0 mi NNW 11.5 mph - N/A   Overcast
7:54 AM 35.6 °F 29.2 °F 28.4 °F 75% 29.96 in 10.0 mi NW 8.1 mph - N/A   Overcast
8:14 AM 33.8 °F 27.0 °F 28.4 °F 81% 29.97 in 10.0 mi NW 8.1 mph - N/A   Overcast
8:34 AM 35.6 °F 29.2 °F 28.4 °F 75% 29.98 in 10.0 mi NW 8.1 mph - N/A   Overcast
8:54 AM 35.6 °F 28.0 °F 26.6 °F 70% 29.98 in 10.0 mi NW 10.4 mph - N/A   Overcast
9:14 AM 35.6 °F 27.1 °F 28.4 °F 75% 29.99 in 10.0 mi NW 12.7 mph - N/A   Overcast
9:34 AM 35.6 °F 28.6 °F 28.4 °F 75% 29.99 in 10.0 mi NW 9.2 mph - N/A   Overcast
9:54 AM 37.4 °F 29.8 °F 28.4 °F 70% 29.99 in 10.0 mi NW 11.5 mph - N/A   Overcast
10:14 AM 37.4 °F 30.3 °F 28.4 °F 70% 30.00 in 10.0 mi NW 10.4 mph - N/A   Overcast
10:34 AM 37.4 °F 30.3 °F 28.4 °F 70% 30.00 in 10.0 mi NW 10.4 mph - N/A   Overcast
10:54 AM 39.2 °F 32.5 °F 28.4 °F 65% 30.00 in 10.0 mi NNW 10.4 mph - N/A   Overcast
11:14 AM 39.2 °F 32.0 °F 28.4 °F 65% 30.01 in 10.0 mi NW 11.5 mph - N/A   Overcast
11:34 AM 39.2 °F 32.0 °F 28.4 °F 65% 30.01 in 10.0 mi WNW 11.5 mph - N/A   Overcast
11:54 AM 41.0 °F 34.7 °F 28.4 °F 61% 30.01 in 10.0 mi WNW 10.4 mph - N/A   Overcast
12:14 PM 41.0 °F 35.2 °F 28.4 °F 61% 30.01 in 10.0 mi WNW 9.2 mph - N/A   Mostly Cloudy
12:34 PM 42.8 °F 37.5 °F 28.4 °F 57% 30.01 in 10.0 mi WNW 9.2 mph - N/A   Mostly Cloudy
12:54 PM 42.8 °F 36.2 °F 28.4 °F 57% 30.01 in 10.0 mi NW 12.7 mph - N/A   Mostly Cloudy
1:14 PM 46.4 °F 41.1 °F 28.4 °F 50% 30.01 in 10.0 mi WNW 11.5 mph 17.3 mph N/A   Overcast
1:34 PM 46.4 °F 41.9 °F 28.4 °F 50% 30.00 in 10.0 mi NW 9.2 mph 12.7 mph N/A   Overcast
1:54 PM 44.6 °F 38.1 °F 24.8 °F 46% 30.00 in 10.0 mi NNW 13.8 mph - N/A   Overcast
2:14 PM 44.6 °F 38.8 °F 24.8 °F 46% 30.00 in 10.0 mi NW 11.5 mph - N/A   Overcast
2:34 PM 44.6 °F 38.8 °F 24.8 °F 46% 30.00 in 10.0 mi NW 11.5 mph - N/A   Overcast
2:54 PM 42.8 °F 38.0 °F 24.8 °F 49% 30.00 in 10.0 mi WNW 8.1 mph - N/A   Mostly Cloudy
3:14 PM 44.6 °F 37.2 °F 24.8 °F 46% 30.01 in 10.0 mi NW 17.3 mph 21.9 mph N/A   Mostly Cloudy
3:34 PM 39.2 °F 30.8 °F 30.2 °F 70% 30.02 in 7.0 mi NNW 15.0 mph 23.0 mph N/A   Overcast
3:54 PM 37.4 °F 30.8 °F 30.2 °F 75% 30.01 in 10.0 mi NNE 9.2 mph - N/A   Overcast
4:14 PM 39.2 °F 37.0 °F 30.2 °F 70% 30.01 in 10.0 mi WNW 3.5 mph - N/A   Overcast
4:35 PM 41.0 °F 38.0 °F 28.4 °F 61% 30.01 in 10.0 mi NW 4.6 mph - N/A   Overcast
4:54 PM 42.8 °F 38.6 °F 28.4 °F 57% 30.01 in 10.0 mi WNW 6.9 mph - N/A   Overcast
5:14 PM 42.8 °F 38.6 °F 26.6 °F 53% 30.02 in 10.0 mi West 6.9 mph - N/A   Overcast
5:34 PM 42.8 °F 38.0 °F 23.0 °F 46% 30.02 in 10.0 mi WNW 8.1 mph - N/A   Overcast
5:54 PM 42.8 °F 36.2 °F 24.8 °F 49% 30.02 in 10.0 mi West 12.7 mph 16.1 mph N/A   Overcast
6:14 PM 39.2 °F 32.0 °F 30.2 °F 70% 30.03 in 10.0 mi North 11.5 mph 19.6 mph N/A   Overcast
6:34 PM 39.2 °F 32.5 °F 30.2 °F 70% 30.04 in 10.0 mi NNW 10.4 mph - N/A Rain Light Rain
6:54 PM 39.2 °F 35.0 °F 30.2 °F 70% 30.04 in 10.0 mi NNW 5.8 mph - N/A   Overcast
7:14 PM 39.2 °F - 28.4 °F 65% 30.05 in 10.0 mi Calm Calm - N/A   Overcast
7:34 PM 39.2 °F 35.9 °F 26.6 °F 61% 30.05 in 10.0 mi West 4.6 mph - N/A   Overcast
7:54 PM 39.2 °F 30.8 °F 24.8 °F 56% 30.05 in 10.0 mi WNW 15.0 mph - N/A   Overcast
8:14 PM 39.2 °F 33.6 °F 26.6 °F 61% 30.06 in 10.0 mi NW 8.1 mph 16.1 mph N/A   Overcast
8:34 PM 39.2 °F 34.2 °F 28.4 °F 65% 30.06 in 10.0 mi NW 6.9 mph - N/A   Overcast
8:54 PM 39.2 °F 34.2 °F 26.6 °F 61% 30.07 in 10.0 mi West 6.9 mph - N/A   Overcast
9:14 PM 39.2 °F 35.0 °F 26.6 °F 61% 30.07 in 10.0 mi West 5.8 mph - N/A   Overcast
9:34 PM 39.2 °F 35.9 °F 26.6 °F 61% 30.08 in 10.0 mi West 4.6 mph - N/A   Overcast
9:54 PM 37.4 °F 32.1 °F 26.6 °F 65% 30.08 in 10.0 mi West 6.9 mph - N/A   Overcast
10:14 PM 37.4 °F 31.4 °F 28.4 °F 70% 30.09 in 10.0 mi West 8.1 mph - N/A   Overcast
10:34 PM 37.4 °F 31.4 °F 28.4 °F 70% 30.09 in 10.0 mi West 8.1 mph - N/A   Overcast
10:54 PM 37.4 °F 30.8 °F 28.4 °F 70% 30.09 in 10.0 mi WNW 9.2 mph - N/A   Overcast
11:14 PM 37.4 °F 29.3 °F 28.4 °F 70% 30.09 in 10.0 mi WNW 12.7 mph - N/A   Overcast
11:34 PM 37.4 °F 31.4 °F 28.4 °F 70% 30.09 in 10.0 mi West 8.1 mph - N/A   Overcast
11:54 PM 37.4 °F 31.4 °F 30.2 °F 75% 30.09 in 10.0 mi West 8.1 mph - N/A   Overcast